Location: *
(43.4667°N, 11.6833°E)
Time: 05:10:15
(UTC+00:00)

Cosmos 1812 - Pass Details

Date: 19 July 2019
Orbit: 519 x 521 km, 82.5° (Epoch: 21 August)

Event Time Altitude Azimuth Distance (km) Brightness Sun altitude
Rises 22:12:30 0° 355° (N) 2,658 7.6 -23.9°
Reaches altitude 10° 22:14:40 10° 358° (N) 1,766 6.4 -24.1°
Enters shadow 22:17:54 53° 36° (NE) 650 3.3 -24.2°
